Bradshaw AFB, HI

10:15 PM HST on July 24, 2017 (GMT -1000)
Bradshaw Army Air Field

Weather History for PHSF - April, 2014

Change the Weather History Date:

Saturday, April 12, 2014

  Actual Average Record
Temperature  
Mean Temperature 52 °F -  
Max Temperature 66 °F 65 °F 75 °F (2002)
Min Temperature 37 °F 46 °F 37 °F (2014)
Degree Days  
Heating Degree Days 14    
Growing Degree Days 2 (Base 50)    
Moisture  
Dew Point 45 °F    
Average Humidity 79    
Maximum Humidity 95    
Minimum Humidity 52    
Precipitation  
Precipitation 0.00 in - - ()
Sea Level Pressure  
Sea Level Pressure 30.09 in    
Wind  
Wind Speed 3 mph (SSE)    
Max Wind Speed 12 mph    
Max Gust Speed 17 mph    
Visibility 10 miles    
Events      
Averages and records for this station are not official NWS values.
T = Trace of Precipitation, MM = Missing Value Source: NWS Daily Summary

Daily Weather History Graph

Daily Weather History Graph

Search for Another Location

Airport or City:

Trip Planner

Search our weather history database for the weather conditions in past years. The results will help you decide how hot, cold, wet, or windy it might be!

Date:

Astronomy

Apr. 12, 2014 Rise Set
Actual Time 6:06 AM HST 6:39 PM HST
Civil Twilight 5:44 AM HST 7:01 PM HST
Nautical Twilight 5:18 AM HST 7:28 PM HST
Astronomical Twilight 4:51 AM HST 7:54 PM HST
Moon 4:44 PM HST (4/12) 4:19 AM HST (4/12)
Length of Visible Light 13h 17m
Length of Day
12h 32m
Waxing Gibbous, 94% of the Moon is Illuminated
Apr 12
Waxing Gibbous
Apr 14
Full
Apr 21
Last Quarter
Apr 28
New
May 6
First Quarter

Hourly Weather History & Observations

Time (HST) Temp. Windchill Dew Point Humidity Pressure Visibility Wind Dir Wind Speed Gust Speed Precip Events Conditions
12:56 AM 46.0 °F - 37.9 °F 73% 30.05 in 9.0 mi WSW 1.2 mph - N/A   Partly Cloudy
1:46 AM 44.6 °F - 42.8 °F 93% 30.32 in 2.2 mi Calm Calm - N/A   Scattered Clouds
1:51 AM 44.6 °F - 42.8 °F 93% 30.32 in 1.2 mi Calm Calm - N/A   Scattered Clouds
1:56 AM 44.1 °F - 42.6 °F 95% 30.02 in 1.4 mi North 2.3 mph - N/A   Partly Cloudy
2:01 AM 42.8 °F - 41.0 °F 93% 30.33 in 4.0 mi North 2.3 mph - N/A   Scattered Clouds
2:31 AM 44.6 °F 43.1 °F 42.8 °F 93% 30.32 in 10.0 mi NNW 3.5 mph - N/A   Mostly Cloudy
2:41 AM 46.4 °F - 44.6 °F 93% 30.32 in 8.0 mi WNW 1.2 mph - N/A   Mostly Cloudy
2:56 AM 45.0 °F - 43.2 °F 93% 30.01 in 7.0 mi ESE 1.2 mph - N/A   Mostly Cloudy
3:01 AM 44.6 °F - 42.8 °F 93% 30.31 in 7.0 mi ESE 1.2 mph - N/A   Scattered Clouds
3:56 AM 41.2 °F - 38.1 °F 89% 30.04 in 9.0 mi ESE 2.3 mph - N/A   Partly Cloudy
4:56 AM 39.6 °F - 37.8 °F 93% 30.08 in 9.0 mi North 1.2 mph - N/A   Clear
5:56 AM 37.2 °F 33.6 °F 34.2 °F 89% 30.08 in 10.0 mi ESE 4.6 mph - N/A   Clear
6:56 AM 41.4 °F 38.4 °F 34.7 °F 77% 30.10 in 12.0 mi ESE 4.6 mph - N/A   Clear
7:56 AM 54.7 °F - 37.9 °F 53% 30.06 in 12.0 mi East 1.2 mph - N/A   Clear
8:56 AM 59.0 °F - 48.7 °F 69% 30.06 in 12.0 mi South 5.8 mph - N/A   Clear
9:56 AM 61.2 °F - 43.2 °F 52% 30.04 in 12.0 mi SSE 4.6 mph - N/A   Clear
10:56 AM 63.1 °F - 50.2 °F 63% 30.06 in 11.0 mi West 8.1 mph 15.0 mph N/A   Partly Cloudy
11:56 AM 64.2 °F - 49.6 °F 59% 30.03 in 12.0 mi WSW 6.9 mph 13.8 mph N/A   Clear
12:56 PM 66.6 °F - 49.1 °F 53% 30.00 in 12.0 mi SW 5.8 mph 12.7 mph N/A   Partly Cloudy
1:56 PM 66.0 °F - 52.0 °F 60% 29.99 in 12.0 mi WSW 8.1 mph 17.3 mph N/A   Mostly Cloudy
2:56 PM 65.5 °F - 50.9 °F 59% 29.97 in 12.0 mi West 8.1 mph 13.8 mph N/A   Clear
3:56 PM 61.7 °F - 51.1 °F 68% 29.99 in 12.0 mi South 5.8 mph - N/A   Mostly Cloudy
4:56 PM 60.6 °F - 50.0 °F 68% 30.01 in 12.0 mi SSE 5.8 mph - N/A   Partly Cloudy
5:56 PM 58.6 °F - 49.1 °F 71% 30.03 in 9.0 mi SSE 11.5 mph 15.0 mph N/A   Clear
6:56 PM 54.1 °F - 46.9 °F 77% 30.06 in 12.0 mi SE 6.9 mph - N/A   Clear
7:56 PM 50.9 °F - 47.1 °F 87% 30.05 in 12.0 mi ESE 6.9 mph - N/A   Clear
8:56 PM 50.0 °F - 47.3 °F 90% 30.04 in 12.0 mi ESE 8.1 mph 17.3 mph N/A   Clear
9:56 PM 50.0 °F - 47.3 °F 90% 30.05 in 12.0 mi SE 8.1 mph 15.0 mph N/A   Clear
10:56 PM 49.5 °F - 47.5 °F 93% 30.04 in 12.0 mi ESE 6.9 mph 16.1 mph N/A   Clear
11:56 PM 48.0 °F - 44.1 °F 86% 30.05 in 12.0 mi ESE 4.6 mph - N/A   Clear